Regional Weather Roundup
Issued by NWS

Home | Current Version | Previous Version | Graphics & Text | Print | Product List | Glossary On
Versions: 1 2 3 4 5 6 7 8 9 10 11 12 13 14 15 16 17 18 19 20 21 22 23 24 25 26 27 28 29 30 31 32 33 34 35 36 37 38 39 40 41 42 43 44 45 46 47 48 49 50
000
ASUS44 KMEG 282310
RWRTN
TENNESSEE HOURLY STATE WEATHER ROUNDUP
NATIONAL WEATHER SERVICE MEMPHIS TN
600 PM CDT FRI APR 28 2017

TNZ002-004-019-021-049-052-054-088>092-290000-
WEST TENNESSEE

CITY           SKY/WX    TMP DP  RH WIND       PRES   REMARKS
MEMPHIS INTL   CLOUDY    83  73  72 S10       29.78R
NWS MEMPHIS      N/A     83 N/A N/A MISG        N/A
JACKSON        CLOUDY    82  73  74 S8        29.80S
DYERSBURG      PTSUNNY   82  72  71 S8        29.78S
SOMERVILLE     MOSUNNY   82  73  74 S10G16    29.79S
UNION CITY     MOSUNNY   81  72  74 S10       29.78S
BOLIVAR        MOSUNNY   82  73  74 S8        29.81R
HUNTINGDON     CLOUDY    81  72  74 S8        29.81S
LEXINGTON      MOSUNNY   82  72  69 S9G16     29.82S
SAVANNAH       SUNNY     84  72  65 S14G24    29.83S
$$

TNZ008-025-027-028-033-062-065-066-290000-
NORTH MIDDLE TENNESSEE

CITY           SKY/WX    TMP DP  RH WIND       PRES   REMARKS
NASHVILLE      PTSUNNY   82  67  60 S14G21    29.88R
PORTLAND       PTSUNNY   77  68  73 S7        29.87S
CLARKSVILLE    PTSUNNY   79  67  66 S6        29.84R
SMYRNA         CLOUDY    81  68  64 S7        29.89S
COOKEVILLE     MOSUNNY   79  66  65 S12       29.92S
GALLATIN       PTSUNNY   81  68  65 S10G18    29.90S
CROSSVILLE     CLOUDY    76  63  64 S8        30.00S
$$

TNZ061-075-076-078-094-096-097-290000-
SOUTH MIDDLE TENNESSEE

CITY           SKY/WX    TMP DP  RH WIND       PRES   REMARKS
TULLAHOMA      SUNNY     81  64  57 S13       29.93S
WINCHESTER     SUNNY     82  66  57 S15       29.94S
MCMINNVILLE    SUNNY     82  66  57 S8        29.93S
COLUMBIA       PTSUNNY   81  77  89 S10       29.87R
SHELBYVILLE    SUNNY     82  70  65 S12       29.91S
$$

TNZ017-018-042-046-047-290000-
NORTHEAST TENNESSEE

CITY           SKY/WX    TMP DP  RH WIND       PRES   REMARKS
TRI CITIES     MOSUNNY   81  59  47 SW3       29.97S
ELIZABETHTON   MOSUNNY   82  61  47 E7        29.97S
$$

TNZ012-013-036-069-073-074-290000-
CENTRAL EAST TENNESSEE

CITY           SKY/WX    TMP DP  RH WIND       PRES   REMARKS
KNOXVILLE      MOSUNNY   82  63  52 SW14      29.95R
OAK RIDGE      PTSUNNY   80  65  59 VRB3      29.97S
DOWNTOWN KNOXV SUNNY     82  68  61 W5G12     29.95S
GATLINBURG     SUNNY     82  64  54 NW5       29.95R
MORRISTOWN     MOSUNNY   82  66  57 VRB5      29.97R
JACKSBORO      CLOUDY    81  64  57 SW5       29.99S
$$

TNZ083-085-099-290000-
SOUTHEAST TENNESSEE

CITY           SKY/WX    TMP DP  RH WIND       PRES   REMARKS
CHATTANOOGA    PTSUNNY   83  65  54 S12G21    29.96R
$$

SKY/WX REPORTED AS FAIR MEANS FEW OR NO CLOUDS BELOW
12 THOUSAND FEET.





USA.gov is the U.S. government's official web portal to all federal, state and local government web resources and services.